Simultaneous Nadir Overpasses (SNOs) Predictions

Prediction of SNOs between FY3D and NOAA-19 Satellite Orbit:

Table of predicted SNOs for the next 14.0 days since TLE Epoch: 11/27/2021
Index Date (FY3D) Time (FY3D) Lat,Lon (FY3D) SZA (FY3D ) Date (NOAA-19) Time (NOAA-19) Lat,Lon (NOAA-19) SZA (NOAA-19 ) Distance(km) Time Diff (sec)
1 12/03/2021 02:59:49 -77.72, -64.14 79.76 12/03/2021 02:58:43 -77.69, -67.53 79.55 80.29 66
2 12/03/2021 03:50:43 78.02, 101.61 100.64 12/03/2021 03:49:28 78.04, 101.69 100.67 2.77 75
3 12/03/2021 04:41:28 -78.01, -91.03 79.38 12/03/2021 04:40:34 -78.04, -91.07 79.33 3.48 54
4 12/03/2021 05:32:15 78.04, 76.16 100.66 12/03/2021 05:31:28 78.05, 76.23 100.68 2.11 47
5 12/03/2021 06:23:00 -78.03,-116.48 79.35 12/03/2021 06:22:34 -78.05,-116.53 79.32 2.84 26
6 12/03/2021 07:13:47 78.05, 50.70 100.69 12/03/2021 07:13:28 78.05, 50.77 100.70 1.58 19
7 12/03/2021 08:04:32 -78.04,-141.93 79.32 12/03/2021 08:04:34 -78.06,-141.99 79.30 2.29 2
8 12/03/2021 08:55:19 78.06, 25.25 100.72 12/03/2021 08:55:28 78.06, 25.31 100.71 1.31 9
9 12/03/2021 09:46:04 -78.05,-167.38 79.30 12/03/2021 09:46:34 -78.06,-167.45 79.29 1.87 30
10 12/03/2021 10:36:51 78.08, -0.20 100.74 12/03/2021 10:37:28 78.07, -0.15 100.72 1.47 37
11 12/03/2021 11:27:36 -78.07, 167.17 79.27 12/03/2021 11:28:34 -78.07, 167.10 79.27 1.69 58
12 12/03/2021 12:18:23 78.09, -25.65 100.77 12/03/2021 12:19:28 78.07, -25.61 100.74 1.94 65



Historial Predications of SNOs between FY3D and NOAA-19
